Content
SEND FEEDBACK

Daily
Averages
Monthly
Summary
United States of America

FARMINGDALE, SOUTH DAKOTA


Home > North America > United States > South Dakota
Elevation: 2990 feet     Latitude: 43 59N     Longitude: 102 54W

WEATHER
 
SELECT A DAY
Number of Records: 200,329;   Date Range: 1/1/95 - 7/29/14
 
SHARE

PRINT THIS DATA

[ ← Previous Day ]
WEATHER ALMANAC - APRIL 1, 2013
[ Next Day → ]
[ °C ]   °F
Weather ElementAverageHighLow
Temperature34.5 °F50 °F (2:52 pm)21 °F (6:52 am)
Dewpoint23.5 °F28 °F (8:52 am)19 °F (6:52 am)
Humidity68.1 %92 % (5:52 am)35 % (2:52 pm)
Barometer30.22 in30.29 in (7:52 am)30.17 in (3:32 am)
Wind Speed5.8 mph11.5 mph (4:52 pm)
Wind Gust16.1 mph (4:52 pm)
Weather ElementAverage
Visibility9.9 mi
Wind DirectionESE (105.3 °)

Weather ElementTotal
Precipitation---
Heating Degree Days29.5 (Base 65)
Averaged from 30 records on April 1, 2013
WEATHER CONDITIONS BREAKOUT
WIND DIRECTION BREAKOUT
WEATHER BY HOUR - APRIL 1, 2013
[ °C ]   °F
Local TimeTemperatureDewpointHumidityBarometerVisibilityWind DirectionWind SpeedGust SpeedPrecipitationEventsConditions
12:52 AM30.0 °F26.1 °F85 %30.25 in10.0 miSE (140°)3.5 mphOvercast
1:22 AM30.2 °F26.6 °F86 %30.20 in10.0 miSSE (150°)4.6 mphOvercast
1:52 AM30.0 °F26.1 °F85 %30.26 in10.0 miSouth (180°)5.8 mphOvercast
2:17 AM30.2 °F26.6 °F86 %30.19 in10.0 miSouth (180°)9.2 mphOvercast
2:52 AM28.0 °F25.0 °F88 %30.25 in10.0 miSSW (200°)5.8 mphMostly Cloudy
3:00 AM28.4 °F24.8 °F86 %30.18 in10.0 miSSW (200°)9.2 mphMostly Cloudy
3:07 AM28.4 °F24.8 °F86 %30.18 in10.0 miSouth (190°)6.9 mphMostly Cloudy
3:20 AM26.6 °F23.0 °F86 %30.18 in10.0 miSouth (190°)6.9 mphMostly Cloudy
3:32 AM26.6 °F23.0 °F86 %30.17 in10.0 miSouth (190°)6.9 mphScattered Clouds
3:52 AM26.1 °F23.0 °F88 %30.24 in10.0 miSSW (200°)6.9 mphClear
4:52 AM24.1 °F21.0 °F88 %30.25 in9.0 miSE (130°)3.5 mphClear
5:52 AM21.9 °F19.9 °F92 %30.26 in9.0 miCalmClear
6:52 AM21.0 °F19.0 °F92 %30.28 in8.0 miCalmClear
7:52 AM28.9 °F26.1 °F89 %30.29 in10.0 miCalmClear
8:52 AM35.1 °F28.0 °F76 %30.27 in10.0 miCalmClear
9:52 AM37.9 °F26.1 °F62 %30.27 in10.0 miCalmClear
10:52 AM42.1 °F23.0 °F47 %30.26 in10.0 miNNE (20°)6.9 mphClear
11:52 AM44.1 °F23.0 °F43 %30.25 in10.0 miENE (70°)6.9 mphClear
12:52 PM46.0 °F21.9 °F39 %30.22 in10.0 miESE (110°)8.1 mphClear
1:52 PM46.9 °F23.0 °F39 %30.20 in10.0 miSouth (170°)6.9 mphClear
2:52 PM50.0 °F23.0 °F35 %30.18 in10.0 miESE (120°)10.4 mphPartly Cloudy
3:52 PM50.0 °F24.1 °F36 %30.17 in10.0 miNNE (20°)9.2 mphPartly Cloudy
4:52 PM50.0 °F24.1 °F36 %30.17 in10.0 miENE (70°)11.5 mph16.1 mphClear
5:52 PM48.0 °F24.1 °F39 %30.18 in10.0 miENE (70°)11.5 mphClear
6:52 PM44.1 °F24.1 °F45 %30.19 in10.0 miEast (90°)6.9 mphClear
7:52 PM37.9 °F23.0 °F55 %30.20 in10.0 miEast (80°)10.4 mphClear
8:52 PM34.0 °F21.9 °F61 %30.23 in10.0 miESE (110°)8.1 mphClear
9:52 PM30.0 °F21.0 °F69 %30.25 in10.0 miESE (120°)3.5 mphClear
10:52 PM30.0 °F21.0 °F69 %30.24 in10.0 miCalmClear
11:52 PM28.9 °F19.9 °F69 %30.22 in10.0 miSSE (160°)3.5 mphClear
Hourly data recorded from KRAP, located miles away from Farmingdale, South Dakota







STORIES FROM OUR PARTNERS